Location: ?????
(30.2541°N, 31.0910°E)
Time: 02:51:49
(UTC+00:00)

Cosmos 1328 Rocket - Pass Details

Date: 27 September 2022
Orbit: 600 x 627 km, 82.5° (Epoch: 01 December)

Event Time Altitude Azimuth Distance (km) Brightness Sun altitude
Exits shadow 02:38:47 23° 233° (SW) 1,316 4.7 -15.4°
Maximum altitude 02:40:46 34° 280° (W) 1,014 4.1 -15.0°
Drops below altitude 10° 02:44:44 10° 345° (NNW) 1,973 6.1 -14.2°
Sets 02:47:09 0° 355° (N) 2,887 7.0 -13.7°
